Regional Weather Roundup
Issued by NWS

Home | Current Version | Previous Version | Graphics & Text | Print | Product List | Glossary On
Versions: 1 2 3 4 5 6 7 8 9 10 11 12 13 14 15 16 17 18 19 20 21 22 23 24 25 26 27 28 29 30 31 32 33 34 35 36 37 38 39 40 41 42 43 44 45 46 47 48 49 50
000
ASUS43 KBIS 121859
RWRND

NORTH DAKOTA REGIONAL WEATHER ROUNDUP
NATIONAL WEATHER SERVICE BISMARCK ND
200 PM CDT SAT JUL 12 2014

NOTE: "FAIR" INDICATES FEW OR NO CLOUDS BELOW 12,000 FEET WITH NO
SIGNIFICANT WEATHER AND/OR OBSTRUCTIONS TO VISIBILITY.


NDZ001>003-009>011-017-122000-
NORTHWEST NORTH DAKOTA

CITY           SKY/WX    TMP DP  RH WIND       PRES   REMARKS
WILLISTON      MOSUNNY   83  51  33 W18G28    30.10F
MINOT          MOSUNNY   78  54  43 W21G26    30.03F
$$

NDZ018>021-031>035-040>046-122000-
SOUTHWEST NORTH DAKOTA

CITY           SKY/WX    TMP DP  RH WIND       PRES   REMARKS
BISMARCK       SUNNY     81  60  48 W10G22    30.07F
DICKINSON      MOSUNNY   76  58  53 W9        30.12S
GARRISON         N/A     77  60  55 W14       30.06F
HETTINGER ARPT PTSUNNY   75  62  64 W10       30.16S
$$

NDZ004>008-012>016-024-026-027-054-122000-
NORTHEAST NORTH DAKOTA

CITY           SKY/WX    TMP DP  RH WIND       PRES   REMARKS
GRAND FORKS    PTSUNNY   77  56  48 W15G21    29.96F
DEVILS LAKE    MOSUNNY   75  55  50 W22       29.99F
$$

NDZ022-023-025-028>030-036>039-047>053-122000-
SOUTHEAST NORTH DAKOTA

CITY           SKY/WX    TMP DP  RH WIND       PRES   REMARKS
FARGO          CLOUDY    76  57  51 SW12      30.00F
$$




USA.gov is the U.S. government's official web portal to all federal, state and local government web resources and services.